Location: Addison Town Hall
(32.9525°N, 96.8158°W)
Time: 19:23:13
(UTC+00:00)

Daily predictions for brighter satellites

Satellite Brightness Start Highest point End
(mag) Time Altitude Azimuth Time Altitude Azimuth Time Altitude Azimuth
Cosmos 1140 Rocket 4.4 12:02:10 10° SW 12:06:37 28° WNW 12:11:04 10° N
ATLAS 5 CENTAUR R/B 3.2 12:05:18 11° WNW 12:06:58 14° NW 12:09:09 10° NNW
NOSS 0 Rocket 4.1 12:01:47 10° NNW 12:07:58 80° ENE 12:14:10 10° SSE
RESURS DK-1 2.3 12:06:10 10° SSW 12:10:14 65° WNW 12:14:21 10° NNE
Cosmos 1812 2.6 12:06:54 10° SSW 12:10:42 67° W 12:14:31 10° N
Cosmos 1328 Rocket 4.4 12:07:03 10° SW 12:10:43 27° WNW 12:14:26 10° NNW
H-2A R/B 2.9 12:07:43 10° N 12:11:30 51° WNW 12:15:15 10° SSW
Cosmos 1515 Rocket 3.7 12:07:46 10° SSW 12:11:58 51° W 12:16:14 10° N
CZ-2C R/B 2.8 12:08:38 10° SW 12:12:38 36° SSE 12:16:41 10° E
PSLV R/B 4.5 12:12:16 10° SSE 12:16:25 66° ENE 12:20:33 10° N
Milstar 3 Cent rocket 2.5 12:12:03 10° W 12:16:36 45° S 12:21:26 10° ESE
Cosmos 1242 Rocket 2.5 12:14:15 10° SSW 12:17:36 52° W 12:21:00 10° N
SeaSat 1 2.5 12:14:08 10° SSE 12:18:59 64° WSW 12:23:53 10° NNW
Cosmos 2219 3.3 12:13:40 10° SW 12:19:14 57° WNW 12:24:48 10° NNE
Meteor 1-31 Rocket 4.4 12:17:21 10° NNW 12:19:44 16° WNW 12:22:06 10° WSW
Cosmos 1850 Rocket 4.4 12:17:20 10° S 12:22:31 70° ESE 12:27:40 10° NNE
NOSS 3-2 (C) 4.4 12:15:48 10° NW 12:23:32 51° WSW 12:31:54 10° S
MOS 1 Rocket 3.8 12:19:50 10° SSW 12:23:43 33° W 12:27:46 10° NNW
COSMO-SKYMED 1 3.2 12:21:10 10° SSW 12:25:07 35° W 12:29:06 10° NNW
Timation 2 Rocket 4.3 12:18:47 10° SW 12:25:32 59° WNW 12:32:15 10° NNE
ATLAS 2AS CENTAUR R/B 3.7 12:21:20 10° WSW 12:28:21 34° NW 12:35:24 10° NNE
